Simultaneous Nadir Overpasses (SNOs) Predictions

Prediction of SNOs near equator between AQUA and NPP Satellite Orbit:

Table of predicted SNOs near equator for the next 14.0 days since TLE Epoch: 5/14/2022
Index Date (AQUA) Time (AQUA) AQUA Lat,Lon Date (NPP) Time (NPP) NPP Lat,Lon Distance(km) Time Diff (sec)
1 05/16/2022 19:54:40 4.53, -94.81 05/16/2022 19:45:08 4.37, -95.64 94.09 572
2 05/19/2022 11:21:43 -6.22,-146.81 05/19/2022 11:11:43 -6.23,-147.57 84.82 600
3 05/24/2022 19:04:15 5.35, -82.29 05/24/2022 18:54:29 5.19, -83.11 92.06 586
